www.pogodaiklimat.ru

Погода и климат >> Архив погоды >> Индонезия >> Аэропорт Япура


ПОГОДА в Аэропорту Япура

  • Прогноз погоды в Аэропорту Япура
  • Монитор погоды в Аэропорту Япура

АРХИВ ПОГОДЫ в Аэропорту Япура

Время (UTC), дата Ветер
(напр.,м/с)
 
Видим.   Явления Облачность Т
(С)
Тd
(С)
f
(%)
Тe
(С)
Тes
(С)
Комфортность P
(гПа)
Po
(гПа)
Тmin
(С)
Tmax
(С)
R
(мм)
R24
(мм)
S
(см)
03 14.09 Ю 6 800 м дым {туман} ?/? +28.6 +23.7 75 +39 +39 очень
душно
1013.4 1011.0
06 14.09 штиль 0 1000 м дым {туман} ?/? +30.4 +24.0 69 +42 +42 опасность
перегрева
1010.8 1008.3
09 14.09 штиль 0 1000 м дым {туман} ?/? +32.4 +23.4 59 +43 +43 опасность
перегрева
1008.1 1005.7
12 14.09 штиль 0 800 м дым {туман} ?/? +29.0 +25.0 79 +42 +42 опасность
перегрева
1008.8 1006.4 +33.0
15 14.09 штиль 0 2000 м дым {туман} ?/? +25.8 +24.0 90 +36 +36 очень
душно
1010.9 1008.5
18 14.09 штиль 0 2000 м дым {туман} ?/? +25.6 +24.1 91 +35 +35 очень
душно
1010.2 1007.8
21 14.09 штиль 0 2000 м дым {туман} ?/? +24.0 +22.8 93 +32 +32 очень
душно
1009.5 1007.1
00 15.09 штиль 0 1000 м дым {туман} ?/? +24.6 +20.9 80 +31 +31 очень
душно
1011.0 1008.6 +24.0
03 15.09 ЮВ 4 4000 м дым {туман} 9/6 450 м
[Sc As op Ci sp]
+27.4 +17.6 55 +32 +34 очень
душно
1012.4 1010.0
06 15.09 Ю 2 3000 м дым {туман} 9/6 450 м
[Sc As op Ci sp]
+31.0 +19.3 50 +37 +42 очень
душно
1009.7 1007.3
09 15.09 штиль 0 3000 м дым 9/5 450 м
[Sc As op Ci sp]
+31.8 +21.1 53 +39 +42 очень
душно
1007.3 1004.9
12 15.09 штиль 0 3000 м дым 9/5 450 м
[Sc As op Ci sp]
+27.4 +22.6 75 +36 +36 очень
душно
1008.5 1006.2 +32.6
15 15.09 штиль 0 2000 м дым 9/6 450 м
[Sc As op Ci sp]
+24.4 +22.4 89 +32 +32 очень
душно
1010.7 1008.3
18 15.09 штиль 0 2000 м дым 9/6 450 м
[Sc As op Ci sp]
+24.4 +22.4 89 +32 +32 очень
душно
1010.7 1008.3
21 15.09 штиль 0 1000 м дым 9/6 450 м
[Sc As op Ci sp]
+22.2 +21.3 95 +29 +29 очень
душно
1009.0 1006.6
00 16.09 штиль 0 500 м дым {туман} ?/? +22.2 +21.3 95 +29 +29 очень
душно
1010.4 1008.0 +21.8
03 16.09 Ю 3 1200 м дым {туман} 9/5 480 м
[Sc As op Ci sp]
+29.2 +23.4 71 +40 +43 очень
душно
1011.5 1009.1
06 16.09 ЮВ 3 500 м дым {туман} ?/? +32.2 +22.6 57 +42 +42 опасность
перегрева
1008.7 1006.3
09 16.09 ЮВ 2 500 м дым {туман} ?/? +32.2 +19.3 46 +38 +38 очень
душно
1006.7 1004.3
12 16.09 штиль 0 400 м дым {туман} ?/? +27.6 +23.8 80 +38 +38 очень
душно
1007.6 1005.3 +33.2
15 16.09 штиль 0 500 м дым {туман} ?/? +25.0 +23.0 89 +33 +33 очень
душно
1009.4 1007.0
18 16.09 штиль 0 500 м дым {туман} ?/? +24.4 +23.0 92 +32 +32 очень
душно
1009.5 1007.1
21 16.09 штиль 0 500 м дым {туман} ?/? +25.0 +23.0 89 +33 +33 очень
душно
1009.4 1007.0
00 17.09 штиль 0 500 м дым {туман} ?/? +22.6 +21.7 95 +30 +30 очень
душно
1011.4 1009.0 +22.0
03 17.09 штиль 0 600 м дым {туман} ?/? +28.0 +23.0 74 +37 +37 очень
душно
1012.2 1009.8
06 17.09 ЮВ 3 1000 м дым {туман} ?/? +32.8 +21.2 51 +41 +41 опасность
перегрева
1009.4 1007.0
09 17.09 штиль 0 6000 м 9/6 450 м
[Sc As op Ci sp]
+34.4 +21.6 47 +42 +44 опасность
перегрева
1007.2 1004.7
12 17.09 штиль 0 6000 м 9/6 450 м
[Sc As op Ci sp]
+29.4 +23.6 71 +40 +40 очень
душно
1008.4 1006.0 +34.4
15 17.09 штиль 0 6000 м 9/6 450 м
[Sc As op Ci sp]
+34.4 +21.6 47 +42 +42 опасность
перегрева
1007.2 1004.7
18 17.09 штиль 0 4000 м дым {туман} 9/6 450 м
[Sc As op Ci sp]
+25.2 +23.5 90 +34 +34 очень
душно
1010.8 1008.4
21 17.09 штиль 0 6000 м {туман} 9/6 450 м
[Sc As op Ci sp]
+34.4 +21.6 47 +42 +42 опасность
перегрева
1007.2 1004.7
00 18.09 штиль 0 400 м дым {туман} ?/? +24.8 +23.0 90 +33 +33 очень
душно
1011.6 1009.2 +22.4
03 18.09 Ю 6 300 м дым 8/4 450 м
[Sc As op Ci fib]
+29.6 +21.2 61 +37 +40 очень
душно
1012.5 1010.1
06 18.09 Ю 4 200 м дым 8/6 450 м
[Sc As op Ci sp]
+34.0 +19.8 43 +40 +44 очень
душно
1009.7 1007.3
09 18.09 Ю 4 4000 м дым 9/6 450 м
[Sc As op Ci sp]
+34.4 +20.0 43 +40 +42 очень
душно
1007.9 1005.5
12 18.09 штиль 0 4000 м дым 9/6 450 м
[Sc As op Ci sp]
+30.2 +23.2 66 +40 +40 очень
душно
1009.0 1006.6 +35.8
15 18.09 штиль 0 5000 м дым 9/6 450 м
[Sc As op Ci sp]
+27.2 +24.0 83 +38 +38 очень
душно
1011.0 1008.6
18 18.09 штиль 0 5000 м дым 9/6 450 м
[Sc As op Ci sp]
+24.6 +23.4 93 +33 +33 очень
душно
1010.6 1008.2
21 18.09 штиль 0 5000 м дым 9/6 450 м
[Sc As op Ci sp]
+23.8 +22.9 95 +32 +32 очень
душно
1010.0 1007.6
00 19.09 штиль 0 500 м дым {туман} ?/? +24.0 +22.8 93 +32 +32 очень
душно
1011.6 1009.2 +23.0
03 19.09 ЮВ 4 1000 м дым {туман} ?/? +28.4 +22.8 72 +38 +38 очень
душно
1012.6 1010.2
06 19.09 Ю 3 2000 м дым {туман} 9/6 450 м
[Sc As op Ci sp]
+31.6 +23.2 61 +42 +47 опасность
перегрева
1010.0 1007.6
09 19.09 штиль 0 4000 м дым {туман} 9/6 450 м
[Sc As op Ci sp]
+32.8 +22.5 55 +42 +45 опасность
перегрева
1007.7 1005.3
12 19.09 штиль 0 5000 м дым {туман} 9/6 450 м
[Sc As op Ci sp]
+29.0 +24.4 76 +41 +41 опасность
перегрева
1009.0 1006.6 +33.0
15 19.09 штиль 0 4000 м дым 9/6 450 м
[Sc As op Ci sp]
+26.2 +24.1 88 +36 +36 очень
душно
1010.4 1008.0
18 19.09 штиль 0 4000 м дым 9/6 450 м
[Sc As op Ci sp]
+26.2 +24.1 88 +36 +36 очень
душно
1010.4 1008.0
21 19.09 штиль 0 4000 м дым 9/6 450 м
[Sc As op Ci sp]
+26.2 +24.1 88 +36 +36 очень
душно
1010.4 1008.0
00 20.09 штиль 0 800 м дым {туман} ?/? +24.2 +23.3 95 +32 +32 очень
душно
1011.4 1009.0 +23.8
03 20.09 В 3 600 м дым {туман} ?/? +28.8 +22.7 70 +38 +38 очень
душно
1012.4 1010.1
06 20.09 штиль 0 600 м дым {туман} ?/? +21.6 +22.2 100 +28 +28 очень
душно
1010.5 1008.1
09 20.09 В 3 1200 м дым {туман} ?/? +33.0 +21.1 50 +41 +41 опасность
перегрева
1007.7 1005.3
12 20.09 штиль 0 2000 м дым {туман} ?/? +29.2 +22.1 66 +38 +38 очень
душно
1008.9 1006.5 +33.8
15 20.09 штиль 0 1000 м дым {туман} ?/? +25.2 +22.2 83 +33 +33 очень
душно
1010.3 1008.0
18 20.09 штиль 0 1000 м дым {туман} ?/? +23.2 +21.7 91 +31 +31 очень
душно
1009.4 1007.0
21 20.09 штиль 0 1000 м дым {туман} ?/? +22.4 +21.2 93 +29 +29 очень
душно
1009.1 1006.7
00 21.09 штиль 0 500 м дым {туман} ?/? +23.0 +22.1 95 +31 +31 очень
душно
1010.6 1008.2 +22.2

 

Местоположение метеостанции Аэропорт Япура (Индонезия): широта -0.33 долгота 102.31 высота над уровнем моря 46 м.

В архиве по умолчанию представлена погода в Аэропорту Япура за последнюю неделю. Архивные данные за месяц целиком и за предыдущие месяцы, начиная с января 2011 года, Вы можете получить, выбрав интересующий диапазон дат из раскрывающегося списка и нажав кнопку "Ввод!".


*Определитесь, кто Вы:
робот инопланетянин человек

Внимание! Время в таблицах - всемирное. Для получения местного времени необходимо прибавить поправку, которая равна 7 ч.

Смотрите также архив погоды в соседних городах и на ближайших метеорологических станциях:

Погода в Пеканбару (Индонезия) (131 км)
Погода в Джамби (Индонезия) (208 км)
Погода в Паданге (Индонезия) (226 км)
Погода в Аэропорту Дабо (Индонезия) (253 км)
Погода в Аэропорту Ханга Надима (Индонезия) (257 км)
Погода в Сингапуре (Сингапур) (265 км)
Погода в Аэропорту Сеная (Малайзия) (265 км)
Погода в Танджунгпинанге (Индонезия) (283 км)
Погода в Малакке (Малайзия) (289 км)
Погода на Керинчи (Индонезия) (291 км)

Пояснения к столбцам:

Ветер - указаны скорость ветра в м/с - средняя за 10 мин, порывы в срок и между сроками (в фигурных скобках) и направление, откуда дует ветер: С - северный, СВ - северо-восточный, В - восточный, ЮВ - юго-восточный, Ю - южный, ЮЗ - юго-западный, З - западный, СЗ - северо-западный.
Видимость - горизонтальная дальность видимости в метрах или километрах. При видимости от 1 до 10 км при отсутствии осадков обычно наблюдается дымка, при ухудшении видимости до 1 км и менее - туман. В сухую погоду видимость может ухудшаться дымом, пылью или мглою.
Явления - указаны атмосферные явления, наблюдавшиеся в срок или в последний час перед сроком; фигурными скобками обозначены явления, наблюдавшиеся между сроками (за 1-3 часа до срока); квадратными скобками обозначены град или гололедные отложения с указанием их диаметра в мм.
Облачность - указаны через наклонную черту общая и нижняя облачность в баллах и высота нижней границы облаков в метрах; квадратными скобками обозначены формы облаков: Ci - перистые, Cs - перисто-слоистые, Cc - перисто-кучевые, Ac - высококучевые, As - высокослоистые, Sc - слоисто-кучевые, Ns - слоисто-дождевые, Cu - кучевые, Cb - кучево-дождевые. Подробнее классификацию облаков см. в Атласе облаков (PDF).
T - Температура воздуха - температура, измеренная на высоте 2 м над землей.
Td - Температура точки росы - температура, при понижении до которой содержащийся в воздухе водяной пар достигнет насыщения.
f - Относительная влажность воздуха - влажноcть воздуха, измеренная на высоте 2 м над землей.
Te - Эффективная температура - температура, которую ощущает одетый по сезону человек в тени. Характеристика душности погоды. При расчете учитывается влияние влажности воздуха и скорости ветра на теплоощущения человека.
Tes - Эффективная температура на солнце - температура, которую ощущает человек, с поправкой на солнечный нагрев. Характеристика знойности погоды. Зависит от высоты солнца над горизонтом, облачности и скорости ветра. Ночью, в пасмурную погоду, а также при ветре 12 м/с и более поправка равна нулю.
P - Атмосферное давление - приведенное к уровню моря атмосферное давление.
Po - Атмосферное давление - измеренное на уровне метеостанции атмосферное давление.
Tmin - Минимальная температура - минимум температуры воздуха на высоте 2 м над землей.
Tmax - Максимальная температура - максимум температуры воздуха на высоте 2 м над землей.
R - Количество осадков - Количество выпавших осадков за период времени, мм. При наведении курсора мыши на число - период времени, за который выпало указанное количество осадков.
R24 - Количество осадков - Количество выпавших осадков за 24 часа, мм.
S - Снежный покров - Высота снежного покрова, см. При наведении курсора мыши на число - состояние снежного покрова и степень покрытия местности в баллах.